OBJECT P

Satellite information

Favourite Embed

Satellite Type and Status

UNKNOWNIN ORBIT

Key statistics

Satellite OBJECT P at a glance.

Uptime

1103

Days in orbit

Revolutions

≈ 15.3

Per day

Orbit

SSO

Sun Synchronous Orbit

Inclination

97.7

Latest

Satellite identification and parameters

Extended collection of information and parameters for OBJECT P.

Object identification

Identified? True

Debris? False

Object name: OBJECT P

International designator: 2022-167P

Object number (NORAD): 54695

Object ID (CCSDS): 54695

Country: PEOPLES REPUBLIC OF CHINA (PRC)

Current information (Y/N): Y

RCS size: MEDIUM

Orbital parameters

Period: 94.102 minutes

Inclination: 97.6691 deg

SMA: 6853.192 km

Apoapsis: 480.516 km

Periapsis: 469.597 km

RAAN: 145.8344 deg

Eccentricy: 0.00079662

Argument of periapsis: 58.5933 deg

Mean anomaly: 301.6085 deg

Mean motion: 15.30253696 rev/day

Mean motion (dot): 0.00014261 rev/day2

B* drag term: 0.0004891662 1/REarth

Two-line elements (TLE)

Creation date: Dec. 14, 2025, 6:24 p.m.

Reference frame: TEME

Reference center: EARTH

Epoch: Dec. 14, 2025, 8:07 a.m. UTC

TLE line 0: 0 OBJECT P

TLE line 1: 1 54695U 22167P 25348.33869214 .00014261 00000-0 48917-3 0 9991

TLE line 2: 2 54695 97.6691 145.8344 0007966 58.5933 301.6085 15.30253696167073

Live tracking on map

Real-time ground track for satellite OBJECT P.

In-orbit conjunctions

There are no conjunctions computed for OBJECT P, at the moment. Check back to stay up to date, as we update our databases every day.

Go to all conjunctions

Associated space launch

First flight of the new solid fuel powered rocket developed by CAST. Payload consists of 14 satellites: * Jilin-1 HR-03D 44-50 * Jilin-1 PT-01A 01 * Tianqi-7 * HEAD-2H * CAS-5A * Golden Bauhinia 1-05 & 06 * Huoju-1

OBJECT P was lifted into orbit during the mission ‘Smart Dragon 3 | Maiden Flight’, on board a Smart Dragon 3 space rocket.

The launch took place on Dec. 9, 2022, 6:35 a.m. from Tai Rui mobile launch platform.

For more information about the launch, click the button.

Launch to space Smart Dragon 3 | Maiden Flight
Smart Dragon 3 | Maiden Flight

Agency: N/A

Status: Launch Successful

Launch date: Dec. 9, 2022, 6:35 a.m. UTC

Rocket: Smart Dragon 3

Launch pad: Tai Rui mobile launch platform

Location: Sea Launch

...

Latest news about this satellite

News about space launch
China launches 14 satellites with new solid rocket from mobile sea platform

China launched its new Jielong-3 rocket from a mobile sea platform in the Yellow Sea Friday, successfully sending 14 satellites into orbit.


Newsletter sign-up

Weekly statistics, charts and insights to help you stay on top of the space industry.